EW4944 Weather Reports


time (UTC)temp
C
wind
direction
speed
KPH
gust
KPH
rain 1hr
cm
rain 24hr
cm
rain mn
cm
humidity
%
barometer
mb
20260506162555 15 218 4.8 17.7 0.00 0.00 0.00 86 1009.4
20260506162057 15 218 8.0 22.5 0.00 0.00 0.00 86 1009.5
20260506161602 15 230 8.0 22.5 0.00 0.00 0.00 85 1009.5
20260506161053 16 187 9.7 22.5 0.00 0.00 0.00 84 1009.5
20260506160555 16 178 8.0 22.5 0.00 0.00 0.00 83 1009.5
20260506160056 16 222 9.7 24.1 0.00 0.00 0.00 83 1009.6
20260506155556 16 167 9.7 25.7 0.00 0.00 0.00 82 1009.6
20260506155056 16 156 8.0 25.7 0.00 0.00 0.00 82 1009.7
20260506154623 16 225 6.4 22.5 0.00 0.00 0.00 82 1009.7
20260506154053 16 250 8.0 22.5 0.00 0.00 0.00 82 1009.8
20260506153553 16 217 8.0 22.5 0.00 0.00 0.00 83 1009.8
20260506153107 16 182 12.9 24.1 0.00 0.00 0.00 83 1009.6
20260506152555 16 205 9.7 29.0 0.00 0.00 0.00 83 1009.9
20260506152100 16 203 11.3 29.0 0.00 0.00 0.00 83 1009.9
20260506151559 16 251 12.9 25.7 0.00 0.00 0.00 83 1009.7
20260506151055 16 240 6.4 20.9 0.00 0.00 0.00 83 1009.5
20260506150555 16 178 6.4 20.9 0.00 0.00 0.00 83 1009.5
20260506150101 16 224 6.4 16.1 0.00 0.00 0.00 83 1009.6
20260506145555 16 153 8.0 24.1 0.00 0.00 0.00 83 1009.5
20260506145058 16 182 8.0 24.1 0.00 0.00 0.00 83 1009.7
20260506144600 16 251 11.3 24.1 0.00 0.00 0.00 83 1009.6
20260506144058 16 196 6.4 24.1 0.00 0.00 0.00 83 1009.6
20260506143558 16 188 9.7 24.1 0.00 0.00 0.00 83 1009.7
20260506143107 16 202 9.7 30.6 0.00 0.00 0.00 83 1009.8
20260506142557 16 187 11.3 30.6 0.00 0.00 0.00 82 1009.9
20260506142055 16 199 14.5 30.6 0.00 0.00 0.00 82 1009.9
20260506141555 16 193 14.5 30.6 0.00 0.00 0.00 81 1010.0
20260506141058 17 235 12.9 29.0 0.00 0.00 0.00 80 1010.0
20260506140558 17 190 8.0 29.0 0.00 0.00 0.00 82 1009.7
20260506140059 16 221 9.7 29.0 0.00 0.00 0.00 82 1009.7
20260506135559 16 251 9.7 27.4 0.00 0.00 0.00 83 1009.9
20260506135058 16 235 12.9 27.4 0.00 0.00 0.00 82 1009.9
20260506134556 16 213 8.0 27.4 0.00 0.00 0.00 83 1009.9
20260506134055 16 168 16.1 27.4 0.00 0.00 0.00 82 1009.9
20260506133559 16 180 9.7 33.8 0.00 0.00 0.00 83 1009.8
20260506133058 16 186 11.3 33.8 0.00 0.00 0.00 84 1009.7
20260506132558 16 221 12.9 29.0 0.00 0.00 0.00 84 1009.6
20260506132101 16 140 11.3 29.0 0.00 0.00 0.00 84 1009.5
20260506131601 16 207 12.9 27.4 0.00 0.00 0.00 84 1009.5
20260506131056 16 228 9.7 24.1 0.00 0.00 0.00 84 1009.5
20260506130558 16 219 6.4 24.1 0.00 0.00 0.00 84 1009.6
20260506125555 16 221 9.7 22.5 0.00 0.00 0.00 84 1009.6
20260506125059 16 228 9.7 24.1 0.00 0.00 0.00 84 1009.7
20260506124559 16 182 11.3 24.1 0.00 0.00 0.00 84 1009.6
20260506124055 16 192 11.3 29.0 0.00 0.00 0.00 83 1009.8
20260506123558 16 232 6.4 29.0 0.00 0.00 0.00 84 1009.9
20260506123058 16 182 11.3 27.4 0.00 0.00 0.00 84 1010.1
20260506122558 16 213 12.9 27.4 0.00 0.00 0.00 84 1010.1
20260506122057 16 275 8.0 27.4 0.00 0.00 0.00 85 1010.3
20260506121555 16 222 8.0 25.7 0.00 0.00 0.00 85 1010.2
20260506121055 16 202 9.7 25.7 0.00 0.00 0.00 85 1010.1
20260506120558 16 259 8.0 22.5 0.00 0.00 0.00 86 1010.1
20260506120059 15 188 8.0 24.1 0.00 0.00 0.00 87 1010.1
20260506115555 15 199 4.8 24.1 0.00 0.00 0.00 88 1009.9
20260506115055 15 205 11.3 25.7 0.00 0.00 0.00 88 1010.0
20260506114604 15 165 11.3 25.7 0.00 0.00 0.00 88 1009.9
20260506114101 15 191 8.0 19.3 0.00 0.00 0.00 89 1010.0
20260506113558 14 209 9.7 19.3 0.00 0.00 0.00 90 1009.9
20260506113057 14 156 8.0 24.1 0.00 0.00 0.00 90 1009.9
20260506112559 14 174 8.0 24.1 0.00 0.00 0.00 90 1010.1
20260506112058 14 237 3.2 19.3 0.00 0.00 0.00 90 1010.0
20260506111557 14 166 9.7 20.9 0.00 0.00 0.00 90 1010.0
20260506111058 13 161 9.7 24.1 0.00 0.00 0.00 91 1010.0
20260506110558 13 230 6.4 24.1 0.00 0.00 0.00 91 1010.0
20260506110103 13 200 8.0 17.7 0.00 0.00 0.00 92 1010.0
20260506105558 13 224 8.0 19.3 0.00 0.00 0.00 92 1010.1
20260506105057 13 234 8.0 19.3 0.00 0.00 0.00 92 1010.0
20260506104600 13 256 4.8 17.7 0.00 0.00 0.00 92 1010.0
20260506104057 13 184 8.0 20.9 0.00 0.00 0.00 92 1009.9
20260506103557 13 152 4.8 20.9 0.00 0.00 0.00 92 1009.8
20260506103059 13 226 8.0 19.3 0.00 0.00 0.00 92 1010.0
20260506102558 13 203 8.0 19.3 0.00 0.00 0.00 92 1010.1
20260506102059 12 0.0 0.0 0.00 0.00 0.00 92 1010.1
20260506101604 12 0.0 0.0 0.00 0.00 0.00 92 1010.0
20260506101058 12 0.0 0.0 0.00 0.00 0.00 92 1009.9
20260506100558 12 0.0 0.0 0.00 0.00 0.00 92 1010.0
20260506100057 12 0.0 0.0 0.00 0.00 0.00 92 1009.9
20260506095559 12 0.0 0.0 0.00 0.00 0.00 91 1009.8
20260506095057 12 0.0 0.0 0.00 0.00 0.00 91 1009.9
20260506094627 12 0.0 0.0 0.00 0.00 0.00 91 1009.9
20260506094058 12 0.0 0.0 0.00 0.00 0.00 91 1009.9
20260506093558 12 0.0 0.0 0.00 0.00 0.00 91 1009.9
20260506093057 12 0.0 0.0 0.00 0.00 0.00 91 1009.8
20260506092558 12 0.0 0.0 0.00 0.00 0.00 91 1009.9
20260506092058 12 0.0 0.0 0.00 0.00 0.00 90 1010.0
20260506091559 13 0.0 0.0 0.00 0.00 0.00 90 1009.9
20260506091058 13 0.0 0.0 0.00 0.00 0.00 90 1010.0
20260506090557 13 0.0 0.0 0.00 0.00 0.00 90 1010.0
20260506090054 13 0.0 0.0 0.00 0.00 0.00 90 1010.0
20260506085558 13 0.0 0.0 0.00 0.00 0.00 90 1009.9
20260506085055 13 0.0 0.0 0.00 0.00 0.00 90 1009.9
20260506084555 13 0.0 0.0 0.00 0.00 0.00 90 1010.0
20260506084100 13 0.0 0.0 0.00 0.00 0.00 90 1010.1
20260506083558 13 0.0 0.0 0.00 0.00 0.00 90 1010.1
20260506083104 13 0.0 0.0 0.00 0.00 0.00 89 1010.1
20260506082602 13 0.0 0.0 0.00 0.00 0.00 89 1010.2
20260506082058 13 0.0 0.0 0.00 0.00 0.00 89 1010.2
20260506081556 13 0.0 0.0 0.00 0.00 0.00 89 1010.2
20260506081058 13 0.0 0.0 0.00 0.00 0.00 89 1010.2
20260506080556 13 0.0 0.0 0.00 0.00 0.00 89 1010.2
20260506073103 13 0.0 0.0 0.00 0.00 0.00 88 1010.4
20260506072558 13 0.0 0.0 0.00 0.00 0.00 88 1010.3
20260506072055 13 0.0 0.0 0.00 0.00 0.00 88 1010.1
20260506071557 13 0.0 0.0 0.00 0.00 0.00 87 1010.2
20260506071058 13 0.0 0.0 0.00 0.00 0.00 88 1010.2
20260506070557 13 0.0 0.0 0.00 0.00 0.00 87 1010.2
20260506070104 13 0.0 0.0 0.00 0.00 0.00 87 1010.3
20260506062058 13 0.0 0.0 0.00 0.00 0.00 86 1010.3
20260506061558 14 0.0 0.0 0.00 0.00 0.00 86 1010.3
20260506061058 14 0.0 0.0 0.00 0.00 0.00 85 1010.3
20260506060557 14 0.0 0.0 0.00 0.00 0.00 85 1010.3
20260506060105 14 0.0 0.0 0.00 0.00 0.00 85 1010.2
20260506051058 15 0.0 0.0 0.00 0.00 0.00 82 1010.3
20260506050556 15 0.0 0.0 0.00 0.00 0.00 82 1010.4
20260506045057 15 0.0 0.0 0.00 0.00 0.00 81 1010.6
20260506044557 15 0.0 0.0 0.00 0.00 0.00 81 1010.6
20260506044055 15 0.0 0.0 0.00 0.00 0.00 81 1010.5
20260506043557 15 0.0 0.0 0.00 0.00 0.00 80 1010.6
20260506043055 16 0.0 0.0 0.00 0.00 0.00 80 1010.6
20260506042556 16 0.0 0.0 0.00 0.00 0.00 80 1010.7
20260506042057 16 0.0 0.0 0.00 0.00 0.00 80 1010.6
20260506041559 16 0.0 0.0 0.00 0.00 0.00 80 1010.7
20260506041055 16 0.0 0.0 0.00 0.00 0.00 79 1010.6
20260506040555 16 0.0 0.0 0.00 0.00 0.00 79 1010.6
20260506040104 16 0.0 0.0 0.00 0.00 0.00 79 1010.7
20260506035555 16 0.0 0.0 0.00 0.00 0.00 79 1010.7
20260506035058 16 0.0 0.0 0.00 0.00 0.00 79 1010.6
20260506034611 16 0.0 0.0 0.00 0.00 0.00 79 1010.6
20260506034057 16 0.0 0.0 0.00 0.00 0.00 79 1010.7
20260506033554 16 0.0 0.0 0.00 0.00 0.00 79 1010.6
20260506033055 16 0.0 0.0 0.00 0.00 0.00 79 1010.6
20260506032557 16 0.0 0.0 0.00 0.00 0.00 78 1010.6
20260506032058 16 0.0 0.0 0.00 0.00 0.00 78 1010.6
20260506031605 16 0.0 0.0 0.00 0.00 0.00 78 1010.6
20260506031057 16 0.0 0.0 0.00 0.00 0.00 78 1010.6
20260506030554 16 0.0 0.0 0.00 0.00 0.00 78 1010.6
20260506030056 16 0.0 0.0 0.00 0.00 0.00 77 1010.7
20260506025554 16 0.0 0.0 0.00 0.00 0.00 77 1010.8
20260506025057 16 0.0 0.0 0.00 0.00 0.00 76 1010.8
20260506024557 16 0.0 0.0 0.00 0.00 0.00 76 1010.8
20260506024054 16 0.0 0.0 0.00 0.00 0.00 76 1010.7
20260506023554 16 0.0 0.0 0.00 0.00 0.00 76 1010.8
20260506023059 16 0.0 0.0 0.00 0.00 0.00 75 1010.7
20260506022555 16 0.0 0.0 0.00 0.00 0.00 75 1010.8
20260506022057 16 0.0 0.0 0.00 0.00 0.00 75 1010.8
20260506021559 16 0.0 0.0 0.00 0.00 0.00 74 1010.7
20260506021054 16 0.0 0.0 0.00 0.00 0.00 74 1010.7
20260506020557 16 0.0 0.0 0.00 0.00 0.00 74 1010.6
20260506020101 16 0.0 0.0 0.00 0.00 0.00 73 1010.5
20260506015555 16 0.0 0.0 0.00 0.00 0.00 74 1010.3
20260506015057 16 0.0 0.0 0.00 0.00 0.00 74 1010.2
20260506014559 16 0.0 0.0 0.00 0.00 0.00 73 1010.1
20260506014054 16 0.0 0.0 0.00 0.00 0.00 73 1010.2
20260506013557 16 0.0 0.0 0.00 0.00 0.00 73 1010.1
20260506013058 16 0.0 0.0 0.00 0.00 0.00 73 1010.0
20260506012554 16 0.0 0.0 0.00 0.00 0.00 73 1010.0
20260506012055 16 0.0 0.0 0.00 0.00 0.00 73 1009.9
20260506011601 16 0.0 0.0 0.00 0.00 0.00 73 1009.9
20260506011055 16 0.0 0.0 0.00 0.00 0.00 73 1009.8
20260506010556 16 0.0 0.0 0.00 0.00 0.00 72 1009.8
20260506010059 16 0.0 0.0 0.00 0.00 0.00 72 1009.7
20260506005554 17 0.0 0.0 0.00 0.00 0.00 72 1009.7
20260506005054 16 0.0 0.0 0.00 0.00 0.00 72 1009.6
20260506004558 16 0.0 0.0 0.00 0.00 0.00 73 1009.4
20260506004055 16 0.0 0.0 0.00 0.00 0.00 73 1009.3
20260506003555 16 0.0 0.0 0.00 0.00 0.00 73 1009.3
20260506003058 16 0.0 0.0 0.00 0.00 0.00 73 1009.3
20260506002558 16 0.0 0.0 0.00 0.00 0.00 72 1009.3
20260506002054 16 0.0 0.0 0.00 0.00 0.00 72 1009.3
20260506001556 16 0.0 0.0 0.00 0.00 0.00 72 1009.2
20260506001056 17 0.0 0.0 0.00 0.00 0.00 71 1009.2
20260506000556 17 0.0 0.0 0.00 0.00 0.00 71 1009.2
20260506000100 17 0.0 0.0 0.00 0.00 0.00 70 1009.1
20260505235555 17 0.0 0.0 0.00 0.00 0.00 70 1009.1
20260505235057 17 0.0 0.0 0.00 0.00 0.00 70 1009.0
20260505234604 17 0.0 0.0 0.00 0.00 0.00 70 1009.0
20260505234058 17 0.0 0.0 0.00 0.00 0.00 69 1008.7
20260505233559 17 16.1 22.5 0.00 0.00 0.00 69 1008.7
20260505233111 17 14.5 30.6 0.00 0.00 0.00 69 1008.6
20260505232554 17 185 16.1 38.6 0.00 0.00 0.00 69 1008.5
20260505232058 17 263 14.5 38.6 0.00 0.00 0.00 68 1008.4
20260505231606 17 211 17.7 30.6 0.00 0.00 0.00 68 1008.4
20260505231101 18 210 11.3 27.4 0.00 0.00 0.00 68 1008.2
20260505230557 18 245 11.3 29.0 0.00 0.00 0.00 68 1008.4
20260505230056 18 254 14.5 29.0 0.00 0.00 0.00 68 1008.3
20260505225557 18 260 11.3 22.5 0.00 0.00 0.00 67 1008.2
20260505225058 18 250 11.3 22.5 0.00 0.00 0.00 67 1008.1
20260505224558 18 195 9.7 22.5 0.00 0.00 0.00 67 1008.1
20260505224057 18 238 9.7 22.5 0.00 0.00 0.00 67 1008.3
20260505223555 18 255 8.0 27.4 0.00 0.00 0.00 67 1008.3
20260505223057 18 226 11.3 27.4 0.00 0.00 0.00 67 1008.5
20260505222557 18 253 8.0 25.7 0.00 0.00 0.00 67 1008.6
20260505222057 18 207 11.3 30.6 0.00 0.00 0.00 67 1008.4
20260505221557 18 224 11.3 33.8 0.00 0.00 0.00 67 1008.5
20260505221057 18 192 16.1 33.8 0.00 0.00 0.00 67 1008.5
20260505220559 18 224 14.5 32.2 0.00 0.00 0.00 67 1008.5
20260505220057 19 248 14.5 33.8 0.00 0.00 0.00 66 1008.4
20260505215557 19 189 14.5 33.8 0.00 0.00 0.00 66 1008.3
20260505215057 19 212 8.0 27.4 0.00 0.00 0.00 66 1008.2
20260505214559 19 195 9.7 27.4 0.00 0.00 0.00 67 1008.3
20260505214057 19 257 12.9 33.8 0.00 0.00 0.00 67 1008.3
20260505213556 19 217 16.1 33.8 0.00 0.00 0.00 66 1008.2
20260505213059 19 151 11.3 30.6 0.00 0.00 0.00 66 1008.3
20260505212556 19 214 11.3 33.8 0.00 0.00 0.00 66 1008.2
20260505212059 19 184 14.5 33.8 0.00 0.00 0.00 66 1008.3
20260505211610 20 237 9.7 32.2 0.00 0.00 0.00 66 1008.2
20260505211057 20 213 11.3 32.2 0.00 0.00 0.00 66 1008.3
20260505210555 20 236 12.9 32.2 0.00 0.00 0.00 65 1008.4
20260505205555 20 182 12.9 30.6 0.00 0.00 0.00 65 1008.4
20260505205059 20 217 12.9 30.6 0.00 0.00 0.00 64 1008.3
20260505204602 20 172 9.7 35.4 0.00 0.00 0.00 63 1008.2
20260505204054 20 192 14.5 40.2 0.00 0.00 0.00 63 1008.2
20260505203605 21 171 9.7 40.2 0.00 0.00 0.00 64 1008.1
20260505203058 21 246 16.1 38.6 0.00 0.00 0.00 63 1008.1
20260505202557 21 229 16.1 30.6 0.00 0.00 0.00 62 1008.1
20260505202055 21 193 14.5 30.6 0.00 0.00 0.00 63 1008.2
20260505201559 21 202 19.3 30.6 0.00 0.00 0.00 61 1008.3
20260505201057 21 186 8.0 27.4 0.00 0.00 0.00 62 1008.3
20260505200556 21 242 9.7 27.4 0.00 0.00 0.00 61 1008.4
20260505200054 21 197 9.7 20.9 0.00 0.00 0.00 63 1008.4
20260505195556 21 148 8.0 25.7 0.00 0.00 0.00 65 1008.5
20260505195057 21 122 12.9 32.2 0.00 0.00 0.00 65 1008.6
20260505194609 21 185 14.5 32.2 0.00 0.00 0.00 64 1008.4
20260505194055 21 225 11.3 24.1 0.00 0.00 0.00 63 1008.5
20260505193559 21 169 11.3 22.5 0.00 0.00 0.00 62 1008.4
20260505193057 21 223 12.9 24.1 0.00 0.00 0.00 62 1008.6
20260505192555 21 157 9.7 33.8 0.00 0.00 0.00 62 1008.8
20260505192055 21 231 14.5 33.8 0.00 0.00 0.00 63 1008.9
20260505191556 21 185 16.1 32.2 0.00 0.00 0.00 62 1008.9
20260505191058 21 244 16.1 32.2 0.00 0.00 0.00 64 1009.0
20260505190555 22 218 16.1 29.0 0.00 0.00 0.00 62 1009.1
20260505190057 22 239 14.5 33.8 0.00 0.00 0.00 62 1009.2
20260505185600 22 236 12.9 33.8 0.00 0.00 0.00 62 1009.3
20260505185054 22 192 14.5 33.8 0.00 0.00 0.00 61 1009.2
20260505184556 22 230 9.7 30.6 0.00 0.00 0.00 63 1009.3
20260505184057 22 173 9.7 30.6 0.00 0.00 0.00 62 1009.3
20260505183556 22 182 6.4 22.5 0.00 0.00 0.00 63 1009.3
20260505183058 22 176 8.0 22.5 0.00 0.00 0.00 63 1009.2
20260505182555 22 226 8.0 27.4 0.00 0.00 0.00 64 1009.3
20260505182056 22 167 14.5 27.4 0.00 0.00 0.00 63 1009.2
20260505181558 22 236 9.7 25.7 0.00 0.00 0.00 61 1009.2
20260505181057 22 133 9.7 25.7 0.00 0.00 0.00 63 1009.2
20260505180557 22 241 11.3 24.1 0.00 0.00 0.00 63 1009.3
20260505180058 21 188 11.3 27.4 0.00 0.00 0.00 63 1009.3
20260505175557 22 157 11.3 27.4 0.00 0.00 0.00 61 1009.4
20260505175057 22 223 11.3 25.7 0.00 0.00 0.00 63 1009.3
20260505174557 22 128 12.9 25.7 0.00 0.00 0.00 61 1009.4
20260505174057 22 184 11.3 25.7 0.00 0.00 0.00 62 1009.5
20260505173553 22 163 14.5 27.4 0.00 0.00 0.00 61 1009.3
20260505173057 22 157 9.7 27.4 0.00 0.00 0.00 61 1009.4
20260505172556 22 208 8.0 22.5 0.00 0.00 0.00 63 1009.4
20260505172055 22 177 8.0 19.3 0.00 0.00 0.00 62 1009.4
20260505171601 22 190 8.0 24.1 0.00 0.00 0.00 65 1009.4
20260505171058 22 138 12.9 24.1 0.00 0.00 0.00 62 1009.6
20260505170555 22 217 8.0 25.7 0.00 0.00 0.00 62 1009.5
20260505170055 22 190 8.0 25.7 0.00 0.00 0.00 64 1009.6
20260505165557 22 198 8.0 22.5 0.00 0.00 0.00 63 1009.6
20260505165057 22 174 6.4 22.5 0.00 0.00 0.00 63 1009.5
20260505164622 22 119 9.7 19.3 0.00 0.00 0.00 65 1009.5
20260505164059 22 142 4.8 14.5 0.00 0.00 0.00 62 1009.6
20260505163555 22 189 6.4 14.5 0.00 0.00 0.00 62 1009.8
20260505163102 22 173 6.4 22.5 0.00 0.00 0.00 64 1010.0